CW5629 Weather Reports


Display with metric or nautical units.
time (UTC)temp
F
wind
direction
speed
MPH
gust
MPH
rain 1hr
in
rain 24hr
in
rain mn
in
humidity
%
barometer
mb
20260510180130 59 147 1.0 2.0 0.00 0.00 0.00 59 1013.4
20260510175118 59 127 1.0 3.0 0.00 0.00 0.00 60 1013.6
20260510174128 58 113 1.0 5.0 0.00 0.00 0.00 61 1013.6
20260510173123 57 86 1.0 5.0 0.00 0.00 0.00 63 1013.7
20260510172114 57 77 1.0 5.0 0.00 0.00 0.00 64 1013.7
20260510171125 57 155 2.0 6.0 0.00 0.00 0.00 63 1013.7
20260510170119 57 340 1.0 4.0 0.00 0.00 0.00 62 1013.8
20260510165125 58 92 0.0 5.0 0.00 0.00 0.00 64 1013.7
20260510164117 57 4 2.0 6.0 0.00 0.00 0.00 64 1013.7
20260510163130 58 160 1.0 4.0 0.00 0.00 0.00 64 1013.8
20260510162116 58 131 2.0 7.0 0.00 0.00 0.00 63 1013.8
20260510161130 58 103 1.0 4.0 0.00 0.00 0.00 64 1013.9
20260510160115 58 129 1.0 4.0 0.00 0.00 0.00 63 1014.0
20260510155129 59 191 1.0 4.0 0.00 0.00 0.00 62 1014.0
20260510154115 59 12 2.0 8.0 0.00 0.00 0.00 62 1014.0
20260510153129 60 86 1.0 6.0 0.00 0.00 0.00 61 1014.1
20260510152115 60 75 0.0 9.0 0.00 0.00 0.00 60 1014.1
20260510151128 61 315 1.0 7.0 0.00 0.00 0.00 61 1014.2
20260510150115 62 294 2.0 5.0 0.00 0.00 0.00 60 1014.2
20260510145129 62 106 1.0 4.0 0.00 0.00 0.00 59 1014.2
20260510144122 63 114 1.0 8.0 0.00 0.00 0.00 59 1014.2
20260510143133 63 148 1.0 11.0 0.00 0.00 0.00 57 1014.3
20260510142120 64 93 1.0 5.0 0.00 0.00 0.00 56 1014.4
20260510141153 64 320 2.0 7.0 0.00 0.00 0.00 55 1014.5
20260510140144 64 316 1.0 4.0 0.00 0.00 0.00 56 1014.6
20260510135134 64 63 1.0 7.0 0.00 0.00 0.00 56 1014.5
20260510134118 64 291 2.0 9.0 0.00 0.00 0.00 57 1014.5
20260510133130 65 42 2.0 8.0 0.00 0.00 0.00 57 1014.5
20260510132139 65 329 2.0 6.0 0.00 0.00 0.00 56 1014.5
20260510131146 65 166 2.0 10.0 0.00 0.00 0.00 55 1014.5
20260510130119 65 170 2.0 6.0 0.00 0.00 0.00 55 1014.6
20260510125125 65 105 1.0 5.0 0.00 0.00 0.00 55 1014.7
20260510124118 65 302 2.0 8.0 0.00 0.00 0.00 55 1014.8
20260510123151 65 111 1.0 5.0 0.00 0.00 0.00 57 1014.8
20260510122120 65 90 1.0 4.0 0.00 0.00 0.00 55 1014.9
20260510121151 64 98 1.0 6.0 0.00 0.00 0.00 56 1015.1
20260510120136 64 60 2.0 5.0 0.00 0.00 0.00 55 1015.1
20260510115133 64 90 1.0 6.0 0.00 0.00 0.00 55 1015.1
20260510114138 65 103 1.0 4.0 0.00 0.00 0.00 56 1015.2
20260510113150 65 68 1.0 5.0 0.00 0.00 0.00 56 1015.3
20260510112122 64 110 1.0 4.0 0.00 0.00 0.00 56 1015.4
20260510111135 63 53 3.0 6.0 0.00 0.00 0.00 56 1015.4
20260510110121 63 118 2.0 8.0 0.00 0.00 0.00 56 1015.4
20260510105132 63 91 1.0 7.0 0.00 0.00 0.00 56 1015.4
20260510104117 63 57 1.0 6.0 0.00 0.00 0.00 57 1015.5
20260510103131 62 138 1.0 6.0 0.00 0.00 0.00 59 1015.5
20260510102123 62 7 2.0 8.0 0.00 0.00 0.00 58 1015.6
20260510101129 61 144 2.0 6.0 0.00 0.00 0.00 60 1015.6
20260510100123 61 247 2.0 7.0 0.00 0.00 0.00 59 1015.7
20260510095157 61 359 2.0 6.0 0.00 0.00 0.00 59 1015.7
20260510094122 61 124 1.0 5.0 0.00 0.00 0.00 61 1015.6
20260510093115 61 104 1.0 5.0 0.00 0.00 0.00 63 1015.7
20260510092127 60 120 1.0 6.0 0.00 0.00 0.00 62 1015.8
20260510091129 60 238 2.0 11.0 0.00 0.00 0.00 61 1015.9
20260510090122 60 116 2.0 4.0 0.00 0.00 0.00 64 1016.0
20260510085135 59 61 1.0 9.0 0.00 0.00 0.00 65 1016.2
20260510084121 58 255 1.0 5.0 0.00 0.00 0.00 66 1016.2
20260510083134 58 113 2.0 5.0 0.00 0.00 0.00 66 1016.3
20260510082119 56 357 2.0 6.0 0.00 0.00 0.00 70 1016.3
20260510081116 55 335 2.0 5.0 0.00 0.00 0.00 70 1016.4
20260510080145 56 156 1.0 6.0 0.00 0.00 0.00 69 1016.4
20260510075114 56 67 1.0 7.0 0.00 0.00 0.00 68 1016.4
20260510074127 56 84 1.0 7.0 0.00 0.00 0.00 71 1016.3
20260510073140 55 190 1.0 5.0 0.00 0.00 0.00 72 1016.2
20260510072131 55 138 1.0 8.0 0.00 0.00 0.00 73 1016.3
20260510071116 54 120 1.0 7.0 0.00 0.00 0.00 75 1016.2
20260510070129 53 26 0.0 4.0 0.00 0.00 0.00 76 1016.1
20260510065115 53 103 1.0 5.0 0.00 0.00 0.00 77 1016.1
20260510064127 52 327 0.0 4.0 0.00 0.00 0.00 79 1015.9
20260510063120 51 82 1.0 5.0 0.00 0.00 0.00 81 1015.8
20260510062126 50 207 0.0 5.0 0.00 0.00 0.00 83 1015.9
20260510061119 49 51 1.0 4.0 0.00 0.00 0.00 84 1015.9
20260510060153 48 93 1.0 5.0 0.00 0.00 0.00 84 1015.8
20260510055145 48 93 0.0 4.0 0.00 0.00 0.00 85 1015.8
20260510054129 48 130 0.0 3.0 0.00 0.00 0.00 84 1015.8
20260510053121 48 146 0.0 8.0 0.00 0.00 0.00 83 1015.9
20260510052128 48 21 1.0 3.0 0.00 0.00 0.00 83 1016.0
20260510051122 49 99 0.0 3.0 0.00 0.00 0.00 82 1016.0
20260510050136 49 141 0.0 4.0 0.00 0.00 0.00 81 1016.0
20260510045118 49 88 0.0 3.0 0.00 0.00 0.00 80 1015.9
20260510044131 49 122 0.0 2.0 0.00 0.00 0.00 79 1016.0
20260510043117 49 113 0.0 4.0 0.00 0.00 0.00 79 1015.9
20260510042129 49 102 0.0 2.0 0.00 0.00 0.00 79 1015.8
20260510041122 49 95 0.0 5.0 0.00 0.00 0.00 79 1015.9
20260510040128 50 115 0.0 3.0 0.00 0.00 0.00 79 1015.9
20260510035122 50 128 0.0 4.0 0.00 0.00 0.00 79 1015.8
20260510034134 50 110 0.0 3.0 0.00 0.00 0.00 79 1015.9
20260510033124 50 111 0.0 1.0 0.00 0.00 0.00 79 1015.9
20260510032137 51 87 0.0 2.0 0.00 0.00 0.00 78 1016.0
20260510031129 51 80 0.0 2.0 0.00 0.00 0.00 78 1016.0
20260510030114 51 72 0.0 1.0 0.00 0.00 0.00 78 1016.0
20260510025128 52 45 0.0 1.0 0.00 0.00 0.00 78 1016.1
20260510024122 52 76 0.0 3.0 0.00 0.00 0.00 77 1016.2
20260510023127 53 105 0.0 3.0 0.00 0.00 0.00 78 1016.0
20260510022121 53 71 0.0 2.0 0.00 0.00 0.00 79 1015.9
20260510021126 53 113 0.0 4.0 0.00 0.00 0.00 80 1015.9
20260510020119 53 97 0.0 3.0 0.00 0.00 0.00 82 1015.8
20260510015133 54 108 0.0 2.0 0.00 0.00 0.00 82 1015.8
20260510014119 54 77 1.0 6.0 0.00 0.00 0.00 83 1015.9
20260510013132 54 113 0.0 2.0 0.00 0.00 0.00 83 1015.9
20260510012146 54 127 1.0 3.0 0.00 0.00 0.00 83 1016.0
20260510011157 55 110 0.0 1.0 0.00 0.00 0.00 82 1016.0
20260510010144 55 98 0.0 2.0 0.00 0.00 0.00 82 1015.9
20260510005116 55 89 0.0 2.0 0.00 0.00 0.00 81 1015.9
20260510004131 56 86 1.0 4.0 0.00 0.00 0.00 81 1015.8
20260510003116 56 77 0.0 3.0 0.00 0.00 0.00 80 1015.8
20260510002128 56 108 0.0 3.0 0.00 0.00 0.00 80 1015.8
20260510001118 56 98 0.0 4.0 0.00 0.00 0.00 79 1015.8
20260510000132 57 126 0.0 3.0 0.00 0.00 0.00 79 1015.8
20260509235117 57 89 0.0 3.0 0.00 0.00 0.00 79 1015.8
20260509234111 57 120 0.0 7.0 0.00 0.00 0.00 79 1015.7
20260509233118 57 25 1.0 5.0 0.00 0.00 0.00 79 1015.6
20260509232112 57 105 0.0 3.0 0.00 0.00 0.00 79 1015.6
20260509231118 57 15 1.0 4.0 0.00 0.00 0.00 79 1015.5
20260509230111 57 103 1.0 5.0 0.00 0.00 0.00 79 1015.6
20260509225124 58 136 1.0 4.0 0.00 0.00 0.00 78 1015.3
20260509224111 58 18 1.0 3.0 0.00 0.00 0.00 78 1015.5
20260509223124 58 96 1.0 7.0 0.00 0.00 0.00 78 1015.6
20260509222115 58 122 1.0 6.0 0.00 0.00 0.00 77 1015.4
20260509221120 58 20 1.0 4.0 0.00 0.00 0.00 76 1015.5
20260509220130 58 47 1.0 6.0 0.00 0.00 0.00 76 1015.5
20260509215124 59 43 0.0 4.0 0.00 0.00 0.00 75 1015.5
20260509214130 59 325 1.0 4.0 0.00 0.00 0.00 75 1015.5
20260509213124 59 111 1.0 4.0 0.00 0.00 0.00 73 1015.4
20260509212136 59 104 0.0 4.0 0.00 0.00 0.00 71 1015.4
20260509211122 59 134 1.0 6.0 0.00 0.00 0.00 67 1015.3
20260509210115 59 105 0.0 3.0 0.00 0.00 0.00 66 1015.3
20260509205130 59 108 0.0 2.0 0.00 0.00 0.00 65 1015.1
20260509204135 60 143 0.0 1.0 0.00 0.00 0.00 65 1015.1
20260509203147 60 97 0.0 3.0 0.00 0.00 0.00 64 1014.9
20260509202118 60 153 0.0 1.0 0.00 0.00 0.00 63 1014.9
20260509201126 61 91 0.0 2.0 0.00 0.00 0.00 62 1014.9
20260509200139 61 150 0.0 4.0 0.00 0.00 0.00 61 1014.9
20260509195130 62 100 1.0 3.0 0.00 0.00 0.00 60 1014.9
20260509194122 62 34 0.0 3.0 0.00 0.00 0.00 60 1014.9
20260509193128 63 80 1.0 4.0 0.00 0.00 0.00 59 1014.8
20260509192141 64 101 1.0 3.0 0.00 0.00 0.00 59 1014.8
20260509191114 64 23 0.0 4.0 0.00 0.00 0.00 58 1014.7
20260509190120 65 78 0.0 3.0 0.00 0.00 0.00 58 1014.7
20260509185130 65 133 1.0 3.0 0.00 0.00 0.00 57 1014.6
20260509184125 66 127 0.0 3.0 0.00 0.00 0.00 57 1014.5
20260509183157 67 108 0.0 3.0 0.00 0.00 0.00 55 1014.5
20260509182123 69 134 0.0 3.0 0.00 0.00 0.00 52 1014.4
20260509181136 70 271 0.0 3.0 0.00 0.00 0.00 50 1014.4